Time,TemperatureF,DewpointF,PressureIn,WindDirection,WindDirectionDegrees,WindSpeedMPH,WindSpeedGustMPH,Humidity,HourlyPrecipIn,Conditions,Clouds,dailyrainin,SoftwareType,DateUTC
2013-02-04 00:02:00,19.0,15.0,-100.00,SE,130,2.0,2.0,85,0.00,,,0.00,,2013-02-04 09:02:00,
2013-02-04 00:11:00,19.0,15.0,-100.00,SE,130,2.0,2.0,85,0.00,,,0.00,,2013-02-04 09:11:00,
2013-02-04 00:21:00,18.0,15.0,-100.00,South,185,2.0,2.0,87,0.00,,,0.00,,2013-02-04 09:21:00,
2013-02-04 00:31:00,18.0,15.0,-100.00,South,185,2.0,2.0,87,0.00,,,0.00,,2013-02-04 09:31:00,
2013-02-04 00:41:00,18.0,15.0,-100.00,South,185,2.0,2.0,87,0.00,,,0.00,,2013-02-04 09:41:00,
2013-02-04 00:52:00,17.0,14.0,-100.00,SE,135,0.0,2.0,89,0.00,,,0.00,,2013-02-04 09:52:00,
2013-02-04 01:01:00,17.0,14.0,-100.00,SE,135,0.0,2.0,89,0.00,,,0.00,,2013-02-04 10:01:00,
2013-02-04 01:11:00,17.0,14.0,-100.00,SE,135,0.0,2.0,89,0.00,,,0.00,,2013-02-04 10:11:00,
2013-02-04 01:21:00,17.0,15.0,-100.00,WNW,300,2.0,4.0,90,0.00,,,0.00,,2013-02-04 10:21:00,
2013-02-04 01:32:00,17.0,15.0,-100.00,WNW,300,2.0,4.0,90,0.00,,,0.00,,2013-02-04 10:32:00,
2013-02-04 01:41:00,17.0,15.0,-100.00,WNW,300,2.0,4.0,90,0.00,,,0.00,,2013-02-04 10:41:00,
2013-02-04 01:52:00,17.0,15.0,-100.00,WNW,295,0.0,1.0,91,0.00,,,0.00,,2013-02-04 10:52:00,
2013-02-04 02:01:00,17.0,15.0,-100.00,WNW,295,0.0,1.0,91,0.00,,,0.00,,2013-02-04 11:01:00,
2013-02-04 02:11:00,17.0,15.0,-100.00,WNW,295,0.0,1.0,91,0.00,,,0.00,,2013-02-04 11:11:00,
2013-02-04 02:22:00,18.0,15.0,-100.00,NNW,330,1.0,1.0,91,0.00,,,0.00,,2013-02-04 11:22:00,
2013-02-04 02:32:00,18.0,15.0,-100.00,NNW,330,1.0,1.0,91,0.00,,,0.00,,2013-02-04 11:32:00,
2013-02-04 02:42:00,18.0,15.0,-100.00,NNW,330,1.0,1.0,91,0.00,,,0.00,,2013-02-04 11:42:00,
2013-02-04 02:52:00,18.0,16.0,-100.00,NNW,335,0.0,1.0,91,0.00,,,0.00,,2013-02-04 11:52:00,
2013-02-04 03:02:00,18.0,16.0,-100.00,NNW,335,0.0,1.0,91,0.00,,,0.00,,2013-02-04 12:02:00,
2013-02-04 03:12:00,18.0,16.0,-100.00,NNW,335,0.0,1.0,91,0.00,,,0.00,,2013-02-04 12:12:00,
2013-02-04 03:21:00,18.0,16.0,-100.00,NNW,340,2.0,2.0,91,0.00,,,0.00,,2013-02-04 12:21:00,
2013-02-04 03:32:00,18.0,16.0,-100.00,NNW,340,2.0,2.0,91,0.00,,,0.00,,2013-02-04 12:32:00,
2013-02-04 03:42:00,18.0,16.0,-100.00,NNW,340,2.0,2.0,91,0.00,,,0.00,,2013-02-04 12:42:00,
2013-02-04 03:53:00,17.0,15.0,-100.00,SE,145,0.0,2.0,92,0.00,,,0.00,,2013-02-04 12:53:00,
2013-02-04 04:02:00,17.0,15.0,-100.00,SE,145,0.0,2.0,92,0.00,,,0.00,,2013-02-04 13:02:00,
2013-02-04 04:11:00,17.0,15.0,-100.00,SE,145,0.0,2.0,92,0.00,,,0.00,,2013-02-04 13:11:00,
2013-02-04 04:21:00,18.0,16.0,-100.00,North,355,1.0,2.0,92,0.00,,,0.00,,2013-02-04 13:21:00,
2013-02-04 04:32:00,18.0,16.0,-100.00,North,355,1.0,2.0,92,0.00,,,0.00,,2013-02-04 13:32:00,
2013-02-04 04:41:00,18.0,16.0,-100.00,North,355,1.0,2.0,92,0.00,,,0.00,,2013-02-04 13:41:00,
2013-02-04 04:52:00,18.0,16.0,-100.00,North,350,3.0,4.0,92,0.00,,,0.00,,2013-02-04 13:52:00,
2013-02-04 05:02:00,18.0,16.0,-100.00,North,350,3.0,4.0,92,0.00,,,0.00,,2013-02-04 14:02:00,
2013-02-04 05:11:00,18.0,16.0,-100.00,North,350,3.0,4.0,92,0.00,,,0.00,,2013-02-04 14:11:00,
2013-02-04 05:21:00,18.0,16.0,-100.00,North,0,1.0,2.0,92,0.00,,,0.00,,2013-02-04 14:21:00,
2013-02-04 05:32:00,18.0,16.0,-100.00,North,0,1.0,2.0,92,0.00,,,0.00,,2013-02-04 14:32:00,
2013-02-04 05:42:00,18.0,16.0,-100.00,North,0,1.0,2.0,92,0.00,,,0.00,,2013-02-04 14:42:00,
2013-02-04 05:52:00,17.0,15.0,-100.00,SE,135,2.0,3.0,92,0.00,,,0.00,,2013-02-04 14:52:00,
2013-02-04 06:03:00,17.0,15.0,-100.00,SE,135,2.0,3.0,92,0.00,,,0.00,,2013-02-04 15:03:00,
2013-02-04 06:12:00,17.0,15.0,-100.00,SE,135,2.0,3.0,92,0.00,,,0.00,,2013-02-04 15:12:00,
2013-02-04 06:23:00,17.0,15.0,-100.00,SSE,155,2.0,2.0,92,0.00,,,0.00,,2013-02-04 15:23:00,
2013-02-04 06:33:00,17.0,15.0,-100.00,SSE,155,2.0,2.0,92,0.00,,,0.00,,2013-02-04 15:33:00,
2013-02-04 06:43:00,17.0,15.0,-100.00,SSE,155,2.0,2.0,92,0.00,,,0.00,,2013-02-04 15:43:00,
2013-02-04 06:52:00,17.0,15.0,-100.00,South,170,1.0,1.0,92,0.00,,,0.00,,2013-02-04 15:52:00,
2013-02-04 07:02:00,17.0,15.0,-100.00,South,170,1.0,1.0,92,0.00,,,0.00,,2013-02-04 16:02:00,
2013-02-04 07:11:00,17.0,15.0,-100.00,South,170,1.0,1.0,92,0.00,,,0.00,,2013-02-04 16:11:00,
2013-02-04 07:22:00,18.0,16.0,-100.00,SSE,155,1.0,2.0,92,0.00,,,0.00,,2013-02-04 16:22:00,
2013-02-04 07:32:00,18.0,16.0,-100.00,SSE,155,1.0,2.0,92,0.00,,,0.00,,2013-02-04 16:32:00,
2013-02-04 07:42:00,18.0,16.0,-100.00,SSE,155,1.0,2.0,92,0.00,,,0.00,,2013-02-04 16:42:00,
2013-02-04 07:52:00,17.0,15.0,-100.00,East,85,1.0,1.0,92,0.00,,,0.00,,2013-02-04 16:52:00,
2013-02-04 08:02:00,17.0,15.0,-100.00,East,85,1.0,1.0,92,0.00,,,0.00,,2013-02-04 17:02:00,
2013-02-04 08:11:00,17.0,15.0,-100.00,East,85,1.0,1.0,92,0.00,,,0.00,,2013-02-04 17:11:00,
2013-02-04 08:21:00,17.0,15.0,-100.00,SE,130,2.0,4.0,92,0.00,,,0.00,,2013-02-04 17:21:00,
2013-02-04 08:31:00,17.0,15.0,-100.00,SE,130,2.0,4.0,92,0.00,,,0.00,,2013-02-04 17:31:00,
2013-02-04 08:42:00,17.0,15.0,-100.00,SE,130,2.0,4.0,92,0.00,,,0.00,,2013-02-04 17:42:00,
2013-02-04 08:52:00,18.0,16.0,-100.00,ESE,115,2.0,4.0,92,0.00,,,0.00,,2013-02-04 17:52:00,
2013-02-04 09:03:00,18.0,16.0,-100.00,ESE,115,2.0,4.0,92,0.00,,,0.00,,2013-02-04 18:03:00,
2013-02-04 09:11:00,18.0,16.0,-100.00,ESE,115,2.0,4.0,92,0.00,,,0.00,,2013-02-04 18:11:00,
2013-02-04 09:21:00,18.0,16.0,-100.00,SE,135,2.0,4.0,92,0.00,,,0.00,,2013-02-04 18:21:00,
2013-02-04 09:31:00,18.0,16.0,-100.00,SE,135,2.0,4.0,92,0.00,,,0.00,,2013-02-04 18:31:00,
2013-02-04 09:41:00,18.0,16.0,-100.00,SE,135,2.0,4.0,92,0.00,,,0.00,,2013-02-04 18:41:00,
2013-02-04 09:52:00,18.0,16.0,-100.00,SSE,155,4.0,6.0,92,0.00,,,0.00,,2013-02-04 18:52:00,
2013-02-04 10:02:00,18.0,16.0,-100.00,SSE,155,4.0,6.0,92,0.00,,,0.00,,2013-02-04 19:02:00,
2013-02-04 10:11:00,18.0,16.0,-100.00,SSE,155,4.0,6.0,92,0.00,,,0.00,,2013-02-04 19:11:00,
2013-02-04 10:21:00,18.0,16.0,-100.00,South,170,2.0,6.0,92,0.00,,,0.00,,2013-02-04 19:21:00,
2013-02-04 10:31:00,18.0,16.0,-100.00,South,170,2.0,6.0,92,0.00,,,0.00,,2013-02-04 19:31:00,
2013-02-04 10:41:00,18.0,16.0,-100.00,South,170,2.0,6.0,92,0.00,,,0.00,,2013-02-04 19:41:00,
2013-02-04 10:52:00,19.0,17.0,-100.00,SW,215,0.0,0.0,92,0.00,,,0.00,,2013-02-04 19:52:00,
2013-02-04 11:02:00,19.0,17.0,-100.00,SW,215,0.0,0.0,92,0.00,,,0.00,,2013-02-04 20:02:00,
2013-02-04 11:11:00,19.0,17.0,-100.00,SW,215,0.0,0.0,92,0.00,,,0.00,,2013-02-04 20:11:00,
2013-02-04 11:21:00,19.0,17.0,-100.00,SW,215,0.0,0.0,92,0.00,,,0.00,,2013-02-04 20:21:00,
2013-02-04 11:52:00,19.0,17.0,-100.00,SSE,155,4.0,4.0,92,0.00,,,0.00,,2013-02-04 20:52:00,
2013-02-04 12:02:00,19.0,17.0,-100.00,SSE,155,4.0,4.0,92,0.00,,,0.00,,2013-02-04 21:02:00,
2013-02-04 12:11:00,19.0,17.0,-100.00,SSE,155,4.0,4.0,92,0.00,,,0.00,,2013-02-04 21:11:00,
2013-02-04 12:22:00,19.0,17.0,-100.00,SSE,155,4.0,4.0,92,0.00,,,0.00,,2013-02-04 21:22:00,
2013-02-04 12:52:00,19.0,17.0,-100.00,South,170,3.0,5.0,91,0.00,,,0.00,,2013-02-04 21:52:00,
2013-02-04 13:02:00,19.0,17.0,-100.00,South,170,3.0,5.0,91,0.00,,,0.00,,2013-02-04 22:02:00,
2013-02-04 13:12:00,19.0,17.0,-100.00,South,170,3.0,5.0,91,0.00,,,0.00,,2013-02-04 22:12:00,
2013-02-04 13:21:00,20.0,17.0,-100.00,SSE,160,2.0,4.0,90,0.00,,,0.00,,2013-02-04 22:21:00,
2013-02-04 13:32:00,20.0,17.0,-100.00,SSE,160,2.0,4.0,90,0.00,,,0.00,,2013-02-04 22:32:00,
2013-02-04 13:41:00,20.0,17.0,-100.00,SSE,160,2.0,4.0,90,0.00,,,0.00,,2013-02-04 22:41:00,
2013-02-04 13:52:00,20.0,18.0,-100.00,SSE,155,4.0,5.0,90,0.00,,,0.00,,2013-02-04 22:52:00,
2013-02-04 14:01:00,20.0,18.0,-100.00,SSE,155,4.0,5.0,90,0.00,,,0.00,,2013-02-04 23:01:00,
2013-02-04 14:11:00,20.0,18.0,-100.00,SSE,155,4.0,5.0,90,0.00,,,0.00,,2013-02-04 23:11:00,
2013-02-04 14:21:00,21.0,18.0,-100.00,SSE,160,4.0,6.0,91,0.00,,,0.00,,2013-02-04 23:21:00,
2013-02-04 14:32:00,21.0,18.0,-100.00,SSE,160,4.0,6.0,91,0.00,,,0.00,,2013-02-04 23:32:00,
2013-02-04 14:41:00,21.0,18.0,-100.00,SSE,160,4.0,6.0,91,0.00,,,0.00,,2013-02-04 23:41:00,
2013-02-04 14:52:00,20.0,17.0,-100.00,NNW,340,1.0,1.0,90,0.00,,,0.00,,2013-02-04 23:52:00,
2013-02-04 15:01:00,20.0,17.0,-100.00,NNW,340,1.0,1.0,90,0.00,,,0.00,,2013-02-05 00:01:00,
2013-02-04 15:11:00,20.0,17.0,-100.00,NNW,340,1.0,1.0,90,0.00,,,0.00,,2013-02-05 00:11:00,
2013-02-04 15:21:00,21.0,19.0,-100.00,SE,130,3.0,6.0,91,0.00,,,0.00,,2013-02-05 00:21:00,
2013-02-04 15:31:00,21.0,19.0,-100.00,SE,130,3.0,6.0,91,0.00,,,0.00,,2013-02-05 00:31:00,
2013-02-04 15:41:00,21.0,19.0,-100.00,SE,130,3.0,6.0,91,0.00,,,0.00,,2013-02-05 00:41:00,
2013-02-04 15:52:00,19.0,17.0,-100.00,SE,125,0.0,1.0,92,0.00,,,0.00,,2013-02-05 00:52:00,
2013-02-04 16:01:00,19.0,17.0,-100.00,SE,125,0.0,1.0,92,0.00,,,0.00,,2013-02-05 01:01:00,
2013-02-04 16:11:00,19.0,17.0,-100.00,SE,125,0.0,1.0,92,0.00,,,0.00,,2013-02-05 01:11:00,
2013-02-04 16:21:00,19.0,17.0,-100.00,NW,310,0.0,1.0,92,0.00,,,0.00,,2013-02-05 01:21:00,
2013-02-04 16:32:00,19.0,17.0,-100.00,NW,310,0.0,1.0,92,0.00,,,0.00,,2013-02-05 01:32:00,
2013-02-04 16:42:00,19.0,17.0,-100.00,NW,310,0.0,1.0,92,0.00,,,0.00,,2013-02-05 01:42:00,
2013-02-04 16:52:00,19.0,17.0,-100.00,NW,310,1.0,2.0,92,0.00,,,0.00,,2013-02-05 01:52:00,
2013-02-04 17:01:00,19.0,17.0,-100.00,NW,310,1.0,2.0,92,0.00,,,0.00,,2013-02-05 02:01:00,
2013-02-04 17:52:00,20.0,18.0,-100.00,WNW,290,1.0,2.0,92,0.00,,,0.00,,2013-02-05 02:52:00,
2013-02-04 18:01:00,20.0,18.0,-100.00,WNW,290,1.0,2.0,92,0.00,,,0.00,,2013-02-05 03:01:00,
2013-02-04 18:11:00,20.0,18.0,-100.00,WNW,290,1.0,2.0,92,0.00,,,0.00,,2013-02-05 03:11:00,
2013-02-04 18:21:00,20.0,18.0,-100.00,WNW,290,1.0,2.0,92,0.00,,,0.00,,2013-02-05 03:21:00,
2013-02-04 18:52:00,19.0,18.0,-100.00,SSE,155,1.0,3.0,93,0.00,,,0.00,,2013-02-05 03:52:00,
2013-02-04 19:01:00,19.0,18.0,-100.00,SSE,155,1.0,3.0,93,0.00,,,0.00,,2013-02-05 04:01:00,
2013-02-04 19:11:00,19.0,18.0,-100.00,SSE,155,1.0,3.0,93,0.00,,,0.00,,2013-02-05 04:11:00,
2013-02-04 19:21:00,20.0,18.0,-100.00,NNW,340,2.0,2.0,94,0.00,,,0.00,,2013-02-05 04:21:00,
2013-02-04 19:32:00,20.0,18.0,-100.00,NNW,340,2.0,2.0,94,0.00,,,0.00,,2013-02-05 04:32:00,
2013-02-04 19:41:00,20.0,18.0,-100.00,NNW,340,2.0,2.0,94,0.00,,,0.00,,2013-02-05 04:41:00,
2013-02-04 19:52:00,20.0,19.0,-100.00,NNW,345,3.0,3.0,94,0.00,,,0.00,,2013-02-05 04:52:00,
2013-02-04 20:02:00,20.0,19.0,-100.00,NNW,345,3.0,3.0,94,0.00,,,0.00,,2013-02-05 05:02:00,
2013-02-04 20:11:00,20.0,19.0,-100.00,NNW,345,3.0,3.0,94,0.00,,,0.00,,2013-02-05 05:11:00,
2013-02-04 20:21:00,20.0,19.0,-100.00,North,355,3.0,4.0,94,0.00,,,0.00,,2013-02-05 05:21:00,
2013-02-04 20:32:00,20.0,19.0,-100.00,North,355,3.0,4.0,94,0.00,,,0.00,,2013-02-05 05:32:00,
2013-02-04 20:42:00,20.0,19.0,-100.00,North,355,3.0,4.0,94,0.00,,,0.00,,2013-02-05 05:42:00,
2013-02-04 20:52:00,20.0,19.0,-100.00,NNW,340,3.0,4.0,94,0.00,,,0.00,,2013-02-05 05:52:00,
2013-02-04 21:01:00,20.0,19.0,-100.00,NNW,340,3.0,4.0,94,0.00,,,0.00,,2013-02-05 06:01:00,
2013-02-04 21:11:00,20.0,19.0,-100.00,NNW,340,3.0,4.0,94,0.00,,,0.00,,2013-02-05 06:11:00,
2013-02-04 21:21:00,20.0,19.0,-100.00,North,0,3.0,4.0,94,0.00,,,0.00,,2013-02-05 06:21:00,
2013-02-04 21:31:00,20.0,19.0,-100.00,North,0,3.0,4.0,94,0.00,,,0.00,,2013-02-05 06:31:00,
2013-02-04 21:41:00,20.0,19.0,-100.00,North,0,3.0,4.0,94,0.00,,,0.00,,2013-02-05 06:41:00,
2013-02-04 21:52:00,21.0,20.0,-100.00,North,350,4.0,5.0,94,0.00,,,0.00,,2013-02-05 06:52:00,
2013-02-04 22:01:00,21.0,20.0,-100.00,North,350,4.0,5.0,94,0.00,,,0.00,,2013-02-05 07:01:00,
2013-02-04 22:11:00,21.0,20.0,-100.00,North,350,4.0,5.0,94,0.00,,,0.00,,2013-02-05 07:11:00,
2013-02-04 22:22:00,21.0,20.0,-100.00,NNW,345,2.0,4.0,94,0.00,,,0.00,,2013-02-05 07:22:00,
2013-02-04 22:31:00,21.0,20.0,-100.00,NNW,345,2.0,4.0,94,0.00,,,0.00,,2013-02-05 07:31:00,
2013-02-04 22:41:00,21.0,20.0,-100.00,NNW,345,2.0,4.0,94,0.00,,,0.00,,2013-02-05 07:41:00,
2013-02-04 22:52:00,22.0,20.0,-100.00,NW,305,2.0,4.0,94,0.00,,,0.00,,2013-02-05 07:52:00,
2013-02-04 23:01:00,22.0,20.0,-100.00,NW,305,2.0,4.0,94,0.00,,,0.00,,2013-02-05 08:01:00,
2013-02-04 23:11:00,22.0,20.0,-100.00,NW,305,2.0,4.0,94,0.00,,,0.00,,2013-02-05 08:11:00,
2013-02-04 23:21:00,22.0,20.0,-100.00,North,355,1.0,2.0,94,0.00,,,0.00,,2013-02-05 08:21:00,
2013-02-04 23:31:00,22.0,20.0,-100.00,North,355,1.0,2.0,94,0.00,,,0.00,,2013-02-05 08:31:00,
2013-02-04 23:41:00,22.0,20.0,-100.00,North,355,1.0,2.0,94,0.00,,,0.00,,2013-02-05 08:41:00,
2013-02-04 23:52:00,21.0,20.0,-100.00,WNW,300,1.0,2.0,94,0.00,,,0.00,,2013-02-05 08:52:00,